[[{"header":{"parameterUnit":"m.s-1","parameterCategory":1,"la1":30.2991,"la2":30.254,"lo1":-89.0895,"lo2":-89.0444,"dy":0.0017,"dx":0.0017,"nx":28,"ny":28,"refTime":"2023-04-02T21:00:00:Z","depth":0,"parameterNumber":2,"parameterNumberName":"U-component_of_WINDS"},"data":[0,0,0,0,0,0,0,0,0,0,0,0,0,0,0,0,0,0,0,0,0,0,0,0,0,0,0,0,0,0,0,0,0,0,0,0,0,0,0,0,0,0,0,0,0,0,0,0,0,0,0,0,0,0,0,0,0,0,0.7455,0.7454,0,0.7354,0.7353,0.7351,0.7314,0.7314,0.7315,0.7315,0.7211,0.7208,0.7205,0,0,0,0,0,0,0,0,0,0,0,0,0,0.7615,0.7612,0.7455,0.7454,0.7452,0.7354,0.7352,0.7351,0.7314,0.7314,0.7315,0.7315,0.7212,0.7208,0.7205,0,0,0,0,0,0,0,0,0,0,0,0,0,0.7533,0.7611,0.7455,0.7422,0.7418,0.7354,0.7352,0.7351,0.7314,0.7314,0.7315,0.7315,0.7213,0.7209,0.7204,0.7165,0,0,0.719,0.7188,0,0,0,0,0,0,0,0,0.7537,0.7527,0.7428,0.7424,0.742,0.7347,0.7371,0.7289,0.7314,0.7353,0.7315,0.7316,0.7256,0.7248,0.7228,0.7161,0.7156,0.719,0.7187,0.7185,0.7183,0,0,0,0,0,0,0,0.7543,0.7531,0.7415,0.7427,0.7421,0.7412,0.7401,0.7355,0.7303,0.735,0.7347,0.7336,0.7254,0.7232,0.7225,0.7155,0.719,0.7186,0.7183,0.7181,0.7051,0.705,0,0,0,0,0,0,0.7554,0.7536,0.7418,0.7412,0.7481,0.7409,0.7396,0.737,0.7303,0.7294,0.7335,0.7334,0.724,0.723,0.7221,0.7171,0.7185,0.718,0.7178,0.7051,0.705,0.705,0,0,0,0,0,0,0.7558,0.7544,0.7422,0.7473,0.7457,0.7405,0.7376,0.7368,0.7346,0.7292,0.7283,0.7323,0.724,0.7228,0.718,0.7167,0.7178,0.7174,0.7052,0.7051,0.705,0.7072,0,0,0,0,0,0,0.7563,0.7546,0.7531,0.7473,0.7454,0.7383,0.7375,0.7365,0.7338,0.7336,0.7278,0.7269,0.7239,0.7187,0.7175,0.7161,0.7171,0.7053,0.7052,0.705,0.7072,0.7072,0.7072,0,0,0,0,0,0.7568,0.7541,0.753,0.7516,0.7434,0.7382,0.7371,0.7337,0.7338,0.7322,0.7287,0.7271,0.7171,0.7182,0.7169,0.7153,0.7054,0.7052,0.705,0.7072,0.7072,0.7072,0,0,0,0,0,0,0.7598,0.7533,0.752,0.7473,0.7433,0.7376,0.7355,0.7338,0.7298,0.7297,0.7257,0.7244,0.7199,0.7171,0.7185,0.7112,0.7111,0.7107,0.7132,0.7131,0.7131,0.7139,0.7167,0,0,0,0,0,0.7599,0.7563,0.7507,0.7471,0.7452,0.7407,0.7383,0.736,0.7318,0.73,0.7262,0.7221,0.718,0.7154,0.7114,0.7068,0.7055,0.705,0.705,0.705,0.7047,0.7021,0.7018,0.7045,0.7045,0.7045,0,0,0.7601,0.7561,0.754,0.7476,0.7442,0.7405,0.7393,0.7354,0.7326,0.7294,0.7247,0.7217,0.7169,0.7122,0.7099,0.7097,0.7037,0.7048,0.7049,0.7045,0.7019,0.7016,0.7014,0.7044,0.7044,0.7044,0,0,0.7585,0.7551,0.7517,0.7484,0.7434,0.7404,0.7396,0.7341,0.732,0.7272,0.7248,0.7214,0.7144,0.711,0.7084,0.7056,0.7039,0.7043,0.7042,0.7017,0.7015,0.7013,0.7002,0.6999,0.704,0.704,0.704,0,0.7594,0.7537,0.7502,0.7464,0.7436,0.7407,0.7372,0.7341,0.728,0.7262,0.726,0.7172,0.7137,0.7082,0.7075,0.7055,0.7044,0.705,0.7018,0.7015,0.7013,0.7003,0.6999,0.7041,0.7041,0.7041,0.7041,0,0.755,0.7511,0.7489,0.7431,0.7401,0.7365,0.7324,0.7298,0.7278,0.7249,0.72,0.7157,0.7107,0.7092,0.7072,0.7034,0.7034,0.7026,0.7024,0.7012,0.7002,0.6998,0.7043,0.7042,0.7042,0.7042,0,0,0.755,0.7473,0.7466,0.744,0.7382,0.7351,0.7313,0.7265,0.7243,0.7202,0.7169,0.7111,0.7103,0.7073,0.7049,0.7027,0.7007,0.7021,0.7019,0.702,0.6962,0.6969,0.6965,0.6996,0.6995,0.6994,0.6966,0,0.7526,0.7458,0.7426,0.7372,0.7335,0.7307,0.7274,0.7235,0.7206,0.717,0.7138,0.7098,0.709,0.7072,0.7049,0.7014,0.6995,0.7016,0.6965,0.6963,0.6978,0.6959,0.6966,0.6942,0.6962,0.6961,0.6961,0,0.749,0.745,0.7393,0.7339,0.7323,0.7294,0.7247,0.7213,0.7168,0.7149,0.7116,0.7092,0.7051,0.7052,0.6995,0.701,0.6987,0.6967,0.6965,0.6959,0.6961,0.6953,0.6933,0.693,0.6954,0.6954,0.6955,0,0.7496,0.7427,0.7384,0.7362,0.7299,0.728,0.7252,0.7208,0.7181,0.7139,0.7121,0.7076,0.7051,0.7016,0.6981,0.6985,0.6927,0.6925,0.6909,0.691,0.6899,0.69,0.6875,0.6884,0.6884,0.6884,0.6884,0,0.7474,0.744,0.7386,0.7359,0.732,0.7283,0.7245,0.7216,0.7177,0.7143,0.7115,0.7085,0.704,0.7004,0.6976,0.6933,0.6922,0.6905,0.6898,0.6907,0.691,0.6892,0.6893,0.6883,0.6883,0.6883,0.6884,0,0.7474,0.7436,0.7387,0.7332,0.7317,0.7291,0.7243,0.7216,0.7186,0.7144,0.7132,0.7085,0.7041,0.7002,0.6944,0.6925,0.6881,0.6872,0.6896,0.6893,0.6879,0.6881,0.6843,0.6836,0.6849,0.6849,0.6849,0,0.7462,0.7435,0.7377,0.7353,0.7326,0.7288,0.726,0.7222,0.7195,0.7141,0.7121,0.7075,0.7036,0.6967,0.6927,0.6882,0.6872,0.6861,0.6865,0.6875,0.6872,0.6874,0.6871,0.6862,0.6862,0.6862,0.6862,0,0.7445,0.7428,0.7389,0.7344,0.7312,0.7275,0.7237,0.7218,0.7173,0.7143,0.7098,0.7068,0.7009,0.6963,0.6914,0.6885,0.6866,0.6861,0.6855,0.6865,0.688,0.6871,0.6897,0.6862,0.6862,0.6862,0.6862,0.6862,0.7438,0.7413,0.7369,0.7327,0.7294,0.7259,0.7231,0.7198,0.7159,0.7108,0.7088,0.7042,0.6997,0.6929,0.69,0.6863,0.686,0.6851,0.6849,0.6848,0.6849,0.6886,0.6854,0.6854,0.6854,0.6854,0.6854,0,0.742,0.739,0.7352,0.7299,0.7266,0.7251,0.7208,0.7182,0.7141,0.7102,0.7064,0.7012,0.6968,0.6924,0.6878,0.6856,0.6846,0.6845,0.6847,0.684,0.6855,0.6865,0.6854,0.6854,0.6854,0.6854,0.6854,0.6854,0.7407,0.7364,0.7341,0.7282,0.7251,0.7206,0.7183,0.715,0.7118,0.7062,0.7025,0.6997,0.6956,0.6906,0.6864,0.6853,0.6837,0.6838,0.6824,0.6839,0.6839,0.684,0.6849,0.6835,0.6835,0.6813,0.6813,0.6812]},{"header":{"parameterUnit":"m.s-1","parameterCategory":1,"la1":30.2991,"la2":30.254,"lo1":-89.0895,"lo2":-89.0444,"dy":0.0017,"dx":0.0017,"nx":28,"ny":28,"refTime":"2023-04-02T21:00:00:Z","depth":0,"parameterNumber":3,"parameterNumberName":"V-component_of_WINDS"},"data":[0,0,0,0,0,0,0,0,0,0,0,0,0,0,0,0,0,0,0,0,0,0,0,0,0,0,0,0,0,0,0,0,0,0,0,0,0,0,0,0,0,0,0,0,0,0,0,0,0,0,0,0,0,0,0,0,0,0,4.3302,4.3302,0,4.325,4.325,4.3249,4.3242,4.3243,4.3244,4.3244,4.3186,4.3185,4.3183,0,0,0,0,0,0,0,0,0,0,0,0,0,4.3395,4.3393,4.3303,4.3302,4.3301,4.325,4.325,4.3249,4.3242,4.3243,4.3244,4.3244,4.3187,4.3185,4.3182,0,0,0,0,0,0,0,0,0,0,0,0,0,4.335,4.3393,4.3303,4.3292,4.3291,4.3251,4.325,4.3249,4.3242,4.3243,4.3244,4.3245,4.3188,4.3185,4.3182,4.3148,0,0,4.3173,4.3171,0,0,0,0,0,0,0,0,4.3352,4.3346,4.3294,4.3293,4.3291,4.3254,4.3261,4.3215,4.3242,4.326,4.3244,4.3245,4.3208,4.3203,4.3192,4.3145,4.3143,4.3173,4.3171,4.3169,4.3169,0,0,0,0,0,0,0,4.3356,4.3349,4.3282,4.3293,4.3291,4.3289,4.3284,4.3252,4.323,4.3259,4.3258,4.3252,4.3207,4.3195,4.319,4.3142,4.3173,4.317,4.3168,4.3167,4.3068,4.3067,0,0,0,0,0,0,4.3361,4.3351,4.3283,4.328,4.3324,4.3287,4.3281,4.3265,4.3231,4.3226,4.3252,4.3252,4.3199,4.3194,4.3188,4.3148,4.3169,4.3167,4.3165,4.3069,4.3068,4.3067,0,0,0,0,0,0,4.3363,4.3355,4.3285,4.3316,4.3307,4.3285,4.3267,4.3263,4.3251,4.3225,4.3221,4.3243,4.32,4.3192,4.3159,4.3146,4.3165,4.3162,4.307,4.3069,4.3067,4.3066,0,0,0,0,0,0,4.3366,4.3356,4.3343,4.3315,4.3305,4.3257,4.3266,4.3262,4.3246,4.3246,4.3216,4.3212,4.32,4.3164,4.3156,4.3142,4.316,4.3071,4.3069,4.3068,4.3067,4.3065,4.3063,0,0,0,0,0,4.3369,4.3343,4.3342,4.3334,4.3288,4.3257,4.3251,4.3238,4.3245,4.3232,4.3216,4.3213,4.3149,4.316,4.3152,4.3137,4.3072,4.307,4.3068,4.3068,4.3066,4.3063,0,0,0,0,0,0,4.3366,4.3339,4.3338,4.3302,4.3282,4.3256,4.3238,4.3235,4.3212,4.3213,4.3198,4.3191,4.3159,4.3144,4.3157,4.3104,4.3111,4.3107,4.3114,4.3111,4.3109,4.3113,4.3158,0,0,0,0,0,4.3362,4.334,4.3316,4.3287,4.3277,4.326,4.3245,4.3238,4.3216,4.3207,4.3189,4.3167,4.3142,4.3126,4.3101,4.3066,4.306,4.3051,4.3049,4.3048,4.3045,4.3027,4.3024,4.3061,4.3061,4.3061,0,0,4.3352,4.3334,4.332,4.3286,4.327,4.3247,4.3252,4.3227,4.321,4.3203,4.3171,4.3157,4.3132,4.3098,4.3082,4.3085,4.3034,4.3045,4.3044,4.3042,4.3025,4.3022,4.3018,4.306,4.306,4.306,0,0,4.3322,4.3306,4.3282,4.3266,4.3242,4.3231,4.3226,4.3201,4.3192,4.316,4.3156,4.3135,4.3091,4.3075,4.306,4.3029,4.3025,4.3021,4.301,4.2993,4.299,4.2988,4.2978,4.2974,4.3018,4.3018,4.3018,0,4.3312,4.3278,4.3268,4.3245,4.323,4.3226,4.3201,4.3186,4.3155,4.3145,4.3149,4.3098,4.308,4.3044,4.3036,4.3024,4.3018,4.3024,4.2992,4.2989,4.2986,4.2977,4.2973,4.3018,4.3018,4.3018,4.3018,0,4.3268,4.3245,4.3228,4.3201,4.3185,4.316,4.3147,4.3131,4.3127,4.3116,4.3085,4.3064,4.3037,4.3028,4.3021,4.2991,4.2994,4.2995,4.3002,4.2983,4.2974,4.297,4.3017,4.3018,4.3018,4.3018,0,0,4.3233,4.3204,4.3198,4.3187,4.3162,4.3143,4.312,4.3095,4.3083,4.3063,4.3043,4.3009,4.3011,4.2995,4.2987,4.2972,4.2951,4.2976,4.2975,4.2973,4.2919,4.2918,4.2914,4.295,4.2949,4.2948,4.2921,0,4.3201,4.316,4.3152,4.3116,4.3095,4.3093,4.3072,4.3055,4.3045,4.3026,4.3014,4.299,4.2994,4.2985,4.2971,4.2957,4.294,4.2959,4.2931,4.293,4.2938,4.2909,4.2907,4.2882,4.2917,4.2917,4.2916,0,4.3157,4.3139,4.3102,4.3083,4.3074,4.3056,4.3035,4.3016,4.2997,4.2991,4.2975,4.297,4.2946,4.2955,4.2922,4.2935,4.2924,4.2916,4.2915,4.2911,4.2922,4.2905,4.2874,4.2871,4.291,4.2911,4.2911,0,4.3137,4.3103,4.3077,4.3068,4.3045,4.3032,4.3022,4.3004,4.2991,4.2972,4.2964,4.2941,4.2929,4.2913,4.2902,4.2909,4.2871,4.2878,4.2865,4.2865,4.2856,4.2857,4.2823,4.2848,4.2848,4.2849,4.2849,0,4.3103,4.308,4.3068,4.3052,4.3028,4.3019,4.2995,4.2985,4.297,4.2952,4.2948,4.2931,4.2918,4.29,4.2891,4.2866,4.286,4.2855,4.2853,4.2856,4.2856,4.2847,4.2849,4.2848,4.2848,4.2848,4.2848,0,4.3075,4.3066,4.3038,4.302,4.3015,4.2998,4.2983,4.2967,4.2959,4.2936,4.293,4.2916,4.2894,4.2883,4.2855,4.285,4.2822,4.2821,4.2829,4.2828,4.2816,4.2818,4.2776,4.277,4.2799,4.2798,4.2798,0,4.3054,4.3037,4.3019,4.3008,4.2998,4.2979,4.2967,4.2959,4.2946,4.2926,4.2913,4.2892,4.2874,4.284,4.2827,4.2807,4.2805,4.2792,4.2802,4.2806,4.2806,4.2808,4.2807,4.279,4.279,4.279,4.2789,0,4.3017,4.3015,4.2998,4.298,4.2966,4.2951,4.2936,4.2927,4.2917,4.2903,4.2882,4.2869,4.2843,4.2822,4.2802,4.2791,4.2789,4.2787,4.2783,4.2785,4.2791,4.2789,4.2825,4.2787,4.2788,4.2788,4.2788,4.2788,4.2993,4.2979,4.2965,4.2947,4.2936,4.2923,4.2909,4.29,4.2883,4.2862,4.2858,4.2837,4.2821,4.2793,4.2782,4.2765,4.2768,4.2762,4.276,4.2759,4.2759,4.2794,4.2761,4.2761,4.2761,4.2761,4.2761,0,4.2957,4.2949,4.2933,4.2914,4.29,4.2902,4.2887,4.2875,4.2856,4.2843,4.2827,4.2804,4.2785,4.2772,4.2753,4.2742,4.2741,4.2737,4.2738,4.2736,4.2757,4.2763,4.2739,4.2739,4.2739,4.2739,4.2739,4.2739,4.2937,4.2915,4.2911,4.2883,4.2875,4.2855,4.2847,4.2835,4.2825,4.2801,4.2786,4.2778,4.2765,4.2745,4.2728,4.2725,4.2718,4.2715,4.2712,4.2732,4.2734,4.2736,4.2742,4.2714,4.2714,4.2692,4.2692,4.2692]}]]